Overview Statistics Trail Chart Weather Telemetry Raw packets
 

This is the latest recevied weather packets stored in our database for station/object IZ8GMP-13. If no packets are shown the sender has not sent any weather packets the latest 10 day(s).

<< 1 2 3 4 5 6 >>
Time Temp. Humidity Pressure Rain* Wind** Luminosity Snow
1788549040 27.78° C 54% 1018.2 hPa - - - -
1788547836 27.78° C 58% 1017.9 hPa - - - -
1788546632 27.78° C 61% 1017.7 hPa - - - -
1788544224 28.89° C 53% 1017.3 hPa - - - -
1788543020 28.89° C 58% 1017.2 hPa - - - -
1788541816 29.44° C 54% 1017.1 hPa - - - -
1788536999 30° C 57% 1016.7 hPa - - - -
1788534591 30.56° C 57% 1016.7 hPa - - - -
1788533387 30.56° C 54% 1016.8 hPa - - - -
1788532183 30.56° C 55% 1016.6 hPa - - - -
1788530978 31.11° C 54% 1016.5 hPa - - - -
1788529774 31.11° C 52% 1016.6 hPa - - - -
1788528570 31.11° C 53% 1016.7 hPa - - - -
1788527366 31.11° C 51% 1016.7 hPa - - - -
1788526924 31.11° C 51% 1016.8 hPa - - - -
1788525720 30.56° C 53% 1016.9 hPa - - - -
1788524517 31.11° C 55% 1017.1 hPa - - - -
1788523313 30.56° C 56% 1017.3 hPa - - - -
1788522110 29.44° C 62% 1017.3 hPa - - - -
1788520906 30° C 55% 1017.2 hPa - - - -
1788519703 30° C 54% 1017.2 hPa - - - -
1788518500 30.56° C 53% 1017.3 hPa - - - -
1788517296 30° C 54% 1017.2 hPa - - - -
1788516093 30.56° C 55% 1017.4 hPa - - - -
1788514889 29.44° C 54% 1017.2 hPa - - - -

* Rain since midnight (hover to see other rain measurements)
** Current wind speed in m/s (hover to see current wind gust speed)